Regional Weather Roundup
Issued by NWS

Home | Current Version | Previous Version | Graphics & Text | Print | Product List | Glossary On
Versions: 1 2 3 4 5 6 7 8 9 10 11 12 13 14 15 16 17 18 19 20 21 22 23 24 25 26 27 28
000
ASUS45 KGTF 270410
RWRMT
MONTANA HOURLY WEATHER ROUNDUP
NATIONAL WEATHER SERVICE GREAT FALLS MT
1000 PM MDT SUN APR 26 2015

NOTE: "FAIR" INDICATES FEW OR NO CLOUDS BELOW 12000 FEET WITH NO
SIGNIFICANT WEATHER AND/OR OBSTRUCTIONS TO VISIBILITY.

MTZ001>007-043-270500-
WEST OF THE DIVIDE

CITY           SKY/WX    TMP DP  RH WIND       PRES   REMARKS
KALISPELL      PTCLDY    42  35  76 S7        30.21R
MISSOULA       CLOUDY    42  39  89 S6        30.27R
BUTTE          PTCLDY    35  29  78 W5        30.24R
DEER LODGE       N/A     32  28  86 W5        30.29R
EUREKA           N/A     43  34  70 SE3       30.20R
HAMILTON         N/A     41  36  81 SW5       30.26R
LIBBY            N/A     43  27  52 SE7       30.22R
$$

MTZ008-052>055-270500-
SOUTHWEST MONTANA

CITY           SKY/WX    TMP DP  RH WIND       PRES   REMARKS
BOZEMAN        CLOUDY    38  34  85 SW6       30.25R
DILLON         CLOUDY    38  34  85 SW3       30.22R
$$

MTZ009-010-012-014-046-048-049-054-270500-
EAST SLOPES AND CENTRAL MONTANA

CITY           SKY/WX    TMP DP  RH WIND       PRES   REMARKS
CUT BANK       CLEAR     35  27  72 SW5       30.20R
GREAT FALLS    CLEAR     31  28  89 SW9       30.23R WCI  23
HELENA         CLEAR     36  32  85 SW3       30.25R
$$

MTZ011-013-016-021-045-047-050-051-270500-
NORTH CENTRAL MONTANA

CITY           SKY/WX    TMP DP  RH WIND       PRES   REMARKS
HAVRE          PTCLDY    34  28  79 S7        30.24R WCI  28
LEWISTOWN      CLOUDY    35  31  85 CALM      30.25R
CHINOOK          N/A     37  30  75 CALM      30.26R
FORT BENTON      N/A     39  28  65 S5        30.26R
$$

MTZ017>020-022>042-056>058-061-062-270500-
EASTERN PLAINS

CITY           SKY/WX    TMP DP  RH WIND       PRES   REMARKS
BAKER          LGT RAIN  42  40  92 NW8       30.20R
BILLINGS       CLOUDY    37  34  89 E3        30.27R
GLASGOW        CLOUDY    41  34  76 SW5       30.23R
JORDAN           N/A     39  35  86 NW5       30.25R
LIVINGSTON     CLOUDY    38  34  85 E8        30.23R
MILES CITY     LGT RAIN  37  36  96 N6        30.25R
SIDNEY         CLOUDY    45  39  81 W9        30.22R
WOLF POINT     CLOUDY    45  35  68 SW6       30.24R
BIG TIMBER       N/A     36  34  93 E7        30.26R WCI  30
FORSYTH          N/A     36  36 100 NW5       30.27R
PLENTYWOOD       N/A     43  34  70 NW8       30.21R
POPLAR           N/A     45  37  76 SW5       30.24R
$$

REGIONAL REPORTS...DAKOTAS

CITY           SKY/WX    TMP DP  RH WIND       PRES   REMARKS
WILLISTON      CLOUDY    48  33  56 N14       30.19R
MINOT          CLOUDY    47  44  90 W6        30.16R
DICKINSON      CLOUDY    43  41  93 N3        30.15R
BEACH          CLOUDY    39  39 100 NW8       30.21R
CROSBY         FAIR      41  39  93 N10G18    30.21S
WATFORD CITY   LGT RAIN  45  45 100 W5        30.17R
BISMARCK       CLOUDY    50  47  89 N3        30.16R
GRAND FORKS    PTCLDY    50  30  46 E5        30.13R
FARGO          PTCLDY    50  29  44 CALM      30.14R
BUFFALO SD       N/A     45  44  97 NE8       30.09R
RAPID CITY     CLOUDY    46  43  89 N3        30.13R
$$

REGIONAL REPORTS...WYOMING/IDAHO/WASHINGTON

CITY           SKY/WX    TMP DP  RH WIND       PRES   REMARKS
GILLETTE       MIX PCPN  36  35  96 N13       30.18R FOG     WCI  27
SHERIDAN       LGT RAIN  37  34  89 NW9       30.23R WCI  30
BUFFALO WY     CLOUDY    36  35  96 N13       30.20R WCI  27
CODY           CLOUDY    34  30  86 N10       30.21R WCI  26
YELLOWSTONE LA   N/A     32  28  85 VRB5      30.18R
IDAHO FALLS    CLOUDY    42  38  85 N3        30.16R
SALMON         CLOUDY    45  30  57 NW3       30.23R
BOISE          CLEAR     52  22  30 N6        30.18R
SPOKANE        MOCLDY    49  28  44 S5        30.23R
$$

REGIONAL REPORTS...ALBERTA

CITY           SKY/WX    TMP DP  RH WIND       PRES   REMARKS
EDMONTON       CLEAR     36  25  64 S7        30.09S WCI  30
CALGARY        PTCLDY    45  27  49 S12       30.08S
LETHBRIDGE     PTCLDY    39  28  65 S12G18    30.15R WCI  32
MEDICINE HAT   CLEAR     39  30  70 S7        30.20S
$$

REGIONAL REPORTS...SASKATCHEWAN

CITY           SKY/WX    TMP DP  RH WIND       PRES   REMARKS
SWIFT CURRENT  CLOUDY    39  36  87 SE6       30.20R
REGINA         CLOUDY    39  34  81 NW6       30.22R
SASKATOON      MOCLDY    32  32 100 NE5       30.22R
$$



USA.gov is the U.S. government's official web portal to all federal, state and local government web resources and services.